Wind_Speed
18 18 19 19 19 19 19 19 18 18 18 17 16 15 14 13 12 11 11 10 10 10 9 9 8 8 7 7 6 5 5 5 4 4 4 4 4 5 5 6 6 6 7
22 21 21 20 21 21 21 20 20 20 19 19 19 18 16 16 15 13 13 12 12 11 11 10 9 9 9 8 8 7 6 6 6 5 6 6 6 6 7 7 7 8 8
25 24 23 23 23 22 22 22 22 22 21 21 21 20 19 18 17 16 15 14 13 13 12 12 11 11 10 10 9 8 8 7 7 7 7 7 7 7 8 8 8 9 9
28 27 27 26 25 25 24 24 24 23 23 23 22 22 22 21 20 19 18 16 15 14 14 14 13 12 12 11 11 11 10 9 9 9 8 8 8 9 9 9 9 10 10
31 30 30 29 28 28 27 26 25 25 25 24 24 24 23 23 23 22 21 20 18 17 16 15 15 14 13 13 13 12 12 11 11 10 10 10 10 10 10 10 11 11 11
34 33 33 32 31 31 30 29 28 27 27 26 26 25 25 25 24 24 23 22 21 20 18 17 16 16 15 15 14 14 14 13 13 12 12 12 12 12 12 12 12 12 12
36 36 35 35 34 33 33 32 31 30 29 28 28 27 27 27 27 26 25 25 24 23 21 20 18 18 17 17 16 16 15 15 14 14 13 13 13 13 13 13 13 13 14
39 38 37 37 37 36 35 35 34 33 32 31 30 29 29 29 29 28 28 27 26 25 24 23 21 20 19 19 18 17 17 16 16 16 15 15 15 15 15 14 14 15 15
42 41 41 40 39 39 38 37 37 36 35 34 33 32 31 31 30 30 29 29 28 27 26 26 24 22 21 21 20 19 19 18 17 17 17 17 16 16 16 16 15 16 16
44 44 43 43 42 41 41 40 40 39 38 37 36 34 33 32 31 32 31 30 29 29 28 27 27 25 24 23 23 22 21 20 19 19 18 18 18 18 18 18 18 18 18
46 46 45 45 44 44 43 43 43 42 41 40 39 37 36 35 34 33 33 32 32 31 30 29 29 28 26 25 24 24 23 22 21 21 20 20 20 20 19 19 20 20 20
47 48 48 47 47 46 46 45 45 45 44 43 42 41 40 39 37 35 34 34 34 33 31 31 31 30 29 28 26 26 25 25 24 23 22 22 22 22 22 21 22 22 22
48 49 49 50 50 49 49 49 48 48 47 46 45 44 43 41 40 39 37 36 35 34 33 32 32 31 31 31 30 28 28 27 26 25 24 24 24 24 24 23 23 23 23
49 50 50 51 52 52 51 51 50 50 49 48 48 47 45 44 43 41 40 38 37 36 35 34 34 33 33 33 32 31 29 29 28 27 27 26 26 25 25 25 25 24 24
50 50 51 51 53 53 53 53 52 51 51 51 50 49 48 47 46 44 42 40 39 38 36 35 35 35 34 34 33 33 32 31 31 30 29 29 28 27 27 27 26 26 27
49 51 51 52 53 54 54 55 55 54 54 53 53 52 50 50 49 47 45 43 42 40 39 37 36 36 36 35 34 34 34 34 33 31 31 30 30 29 28 28 28 28 28
47 49 50 52 53 54 55 56 56 56 55 55 54 54 53 52 51 50 48 46 45 44 42 41 39 38 38 38 37 36 35 35 35 34 33 32 32 31 31 30 30 30 30
47 48 49 51 53 54 55 55 56 57 57 57 57 56 55 55 54 53 51 49 47 46 45 44 42 40 40 40 39 38 37 36 36 35 35 34 33 33 33 33 33 32 32
44 45 46 48 50 51 54 55 56 57 58 58 58 58 58 57 57 56 54 52 51 49 47 46 45 43 42 41 41 40 39 38 37 37 36 35 35 35 35 35 35 34 35
41 41 42 44 46 48 50 52 54 56 57 57 58 58 59 59 58 57 56 54 53 52 50 49 48 47 45 44 43 42 42 40 39 39 38 37 37 37 37 37 37 37 37
39 39 40 42 43 44 46 48 50 52 54 56 56 58 59 59 58 58 57 56 55 53 51 50 50 49 47 47 46 45 44 43 42 40 40 39 38 38 38 39 39 39 39
37 38 39 40 42 44 45 45 46 48 50 52 54 56 57 58 58 57 57 56 56 54 52 52 51 50 49 48 48 48 47 45 43 41 41 41 40 40 40 40 41 41 41
36 36 37 38 39 41 42 44 46 46 47 49 51 52 55 56 56 56 56 56 56 55 53 53 52 50 49 49 49 49 49 47 45 44 43 43 42 42 43 42 42 42 42
34 34 35 36 37 39 39 40 43 44 45 46 48 48 51 53 55 56 56 56 56 56 54 53 52 52 51 51 51 50 50 50 49 47 45 45 45 45 45 46 45 45 45
30 31 32 34 35 37 38 39 40 41 42 44 45 47 48 51 53 55 55 55 54 54 53 52 50 51 52 52 53 53 52 52 52 51 49 48 48 47 46 47 47 46 46
27 27 29 30 30 31 33 35 36 38 39 41 43 44 46 47 49 51 52 54 52 52 53 53 50 50 51 52 53 53 53 54 54 54 53 50 50 49 48 48 47 47 48
Wind_Direction
250 251 251 252 253 254 256 257 257 258 258 257 257 259 259 260 263 266 267 268 268 264 260 256 252 252 251 247 245 248 254 256 257 259 263 269 274 278 286 294 303 311 319
250 251 252 252 253 254 255 256 256 258 258 257 257 258 259 259 260 262 265 266 266 264 261 260 256 255 255 252 248 247 251 256 259 263 267 270 274 278 283 288 295 301 307
252 251 252 253 253 254 254 255 256 257 257 258 258 257 258 258 258 259 261 263 264 264 262 261 259 257 256 255 252 250 252 257 260 264 268 271 273 276 280 284 289 294 299
252 253 253 253 253 254 254 255 255 255 256 257 258 258 257 256 256 257 258 260 261 263 263 262 261 259 257 256 255 254 255 258 261 264 267 270 272 275 279 282 286 289 294
252 253 253 253 254 254 254 254 254 254 255 256 257 257 256 256 256 256 256 257 259 261 262 262 262 260 259 257 256 256 257 258 260 262 266 269 271 274 278 281 284 287 290
252 253 253 254 254 254 254 254 254 254 255 255 255 256 255 255 255 256 256 257 257 259 260 261 261 260 260 259 258 258 258 259 260 261 264 267 270 274 278 281 283 286 289
253 253 253 254 254 254 254 254 254 254 254 255 255 255 255 255 255 255 255 257 257 257 259 259 261 261 261 260 260 259 260 261 261 263 264 267 270 273 276 279 282 285 288
254 254 254 254 254 254 254 254 254 254 254 255 255 255 255 256 255 255 255 256 257 256 257 258 259 262 262 261 261 261 261 262 263 263 264 266 269 271 275 278 281 284 288
255 255 255 254 254 254 253 253 253 253 253 254 255 255 255 255 255 255 255 255 255 256 256 257 258 260 262 263 262 262 263 263 264 264 264 266 268 270 273 277 279 282 286
255 255 255 254 253 254 254 253 253 252 253 253 254 254 254 255 255 255 254 254 254 255 256 257 256 258 261 263 263 262 263 264 265 266 266 267 267 269 271 275 278 281 284
257 256 256 254 253 253 254 253 253 253 253 253 253 253 253 253 253 254 254 254 254 254 255 256 256 257 258 261 264 263 262 264 265 266 267 267 267 268 271 273 277 280 282
257 256 256 254 254 254 254 253 253 253 253 253 253 253 252 251 251 253 253 254 254 254 255 255 256 256 257 258 262 263 263 263 264 265 267 267 268 269 271 273 276 278 280
258 257 255 254 254 254 254 253 253 253 253 253 253 252 251 250 250 251 252 253 255 254 254 254 255 255 255 256 258 261 263 263 264 265 267 267 268 270 271 273 276 276 278
257 257 255 254 254 253 253 253 252 252 253 253 252 252 251 249 250 251 251 252 253 254 255 255 254 255 255 256 257 259 262 264 264 265 266 267 268 270 272 273 274 276 277
258 257 256 255 255 254 253 252 252 252 252 252 251 251 250 249 249 250 251 251 252 253 255 256 255 255 257 257 257 259 260 263 264 264 265 266 268 270 271 272 273 274 275
259 258 257 256 255 254 254 253 252 251 251 250 250 250 249 249 248 249 251 251 251 252 253 255 256 256 256 257 258 259 261 262 263 264 264 266 267 269 270 271 273 274 276
261 260 258 256 255 254 254 253 252 251 250 250 249 248 248 248 248 249 250 251 251 251 252 254 255 257 257 258 258 259 260 262 262 263 264 265 266 268 270 272 273 274 275
261 261 260 257 256 255 254 254 253 252 250 249 248 248 248 248 248 249 249 249 251 251 251 252 254 255 257 258 258 259 260 262 262 262 264 265 266 267 269 271 273 273 275
264 263 261 259 257 256 255 254 253 252 251 250 248 247 246 247 247 248 248 249 249 250 251 251 252 254 256 258 258 259 259 261 261 262 263 264 266 267 269 271 273 274 276
265 264 263 260 259 257 256 255 254 252 251 250 248 246 245 245 246 246 246 247 248 249 249 251 253 253 255 257 257 257 258 258 260 261 262 265 267 268 269 271 272 273 276
265 265 264 262 260 258 256 255 253 252 251 250 248 246 245 244 244 245 245 246 247 248 249 250 252 252 253 254 255 256 257 257 259 261 262 265 267 268 270 271 272 273 275
268 266 265 263 261 259 257 255 253 253 251 249 247 245 243 243 243 244 245 245 245 247 249 250 251 252 252 253 254 255 256 256 258 260 262 265 267 269 270 271 273 274 276
269 267 266 266 264 262 259 256 254 252 250 248 247 246 243 242 242 242 243 244 245 246 247 249 251 252 252 253 255 255 255 256 257 260 262 265 267 269 272 273 273 274 275
271 268 266 265 265 263 260 258 254 253 251 249 248 246 243 241 241 242 242 243 244 246 246 248 250 251 252 253 254 254 256 257 258 259 261 264 267 270 272 272 274 275 275
273 270 268 267 268 264 261 259 256 253 250 248 247 245 243 242 242 242 243 242 244 245 245 247 249 250 252 254 254 254 256 257 259 260 261 263 266 269 271 272 273 276 276
276 273 274 274 271 267 263 258 255 252 249 248 247 244 242 242 242 242 242 241 243 244 245 247 248 250 252 253 254 255 255 257 259 260 262 263 266 269 270 271 271 274 275
Height
5859 5859 5860 5862 5863 5864 5866 5867 5868 5869 5870 5871 5872 5873 5874 5875 5875 5876 5876 5877 5877 5877 5877 5877 5878 5878 5878 5878 5878 5878 5879 5879 5879 5879 5879 5879 5879 5879 5879 5879 5879 5879 5878
5855 5856 5857 5859 5860 5861 5862 5864 5865 5866 5868 5869 5870 5871 5872 5873 5873 5874 5875 5875 5876 5876 5876 5876 5877 5877 5877 5877 5877 5877 5878 5878 5878 5878 5878 5878 5878 5878 5878 5878 5878 5878 5877
5851 5852 5854 5855 5856 5858 5859 5860 5862 5863 5864 5866 5867 5868 5869 5870 5871 5872 5873 5873 5874 5874 5875 5875 5875 5875 5876 5876 5876 5876 5876 5877 5877 5877 5877 5877 5877 5877 5877 5877 5877 5876 5876
5846 5848 5850 5851 5853 5854 5855 5857 5858 5859 5861 5862 5863 5865 5866 5867 5868 5869 5870 5871 5872 5872 5873 5873 5874 5874 5874 5874 5874 5875 5875 5875 5875 5876 5876 5876 5875 5875 5875 5875 5875 5875 5874
5841 5843 5845 5846 5848 5850 5851 5852 5854 5855 5857 5858 5860 5861 5862 5864 5865 5866 5867 5868 5869 5870 5871 5871 5872 5872 5872 5872 5872 5873 5873 5873 5874 5874 5874 5874 5874 5874 5873 5873 5873 5873 5872
5836 5838 5839 5841 5843 5845 5846 5848 5849 5851 5852 5854 5855 5857 5858 5860 5861 5862 5864 5865 5866 5867 5868 5869 5869 5869 5870 5870 5870 5870 5871 5871 5871 5872 5872 5872 5872 5872 5872 5871 5871 5871 5870
5830 5832 5833 5835 5837 5839 5841 5843 5844 5846 5848 5849 5851 5852 5854 5855 5857 5858 5860 5861 5862 5863 5865 5866 5866 5867 5867 5867 5868 5868 5868 5869 5869 5869 5870 5870 5870 5870 5869 5869 5869 5869 5868
5823 5825 5827 5829 5831 5833 5835 5837 5838 5840 5842 5844 5846 5847 5849 5850 5852 5854 5855 5857 5858 5860 5861 5862 5863 5864 5864 5865 5865 5865 5866 5866 5866 5867 5867 5867 5867 5867 5867 5867 5866 5866 5866
5816 5818 5820 5822 5824 5826 5828 5830 5832 5834 5836 5838 5840 5842 5844 5845 5847 5849 5850 5852 5854 5855 5856 5858 5859 5860 5861 5862 5862 5862 5863 5863 5863 5864 5864 5864 5864 5864 5864 5864 5864 5863 5863
5808 5810 5812 5815 5817 5819 5821 5823 5825 5827 5829 5831 5833 5836 5838 5840 5841 5843 5845 5847 5849 5850 5852 5853 5855 5856 5857 5858 5858 5859 5859 5860 5860 5860 5861 5860 5860 5861 5861 5860 5860 5860 5860
5799 5801 5803 5806 5809 5811 5813 5816 5818 5820 5822 5824 5826 5829 5831 5833 5835 5837 5839 5841 5843 5845 5847 5848 5850 5851 5852 5853 5854 5855 5855 5856 5856 5857 5857 5857 5857 5857 5857 5857 5857 5856 5856
5789 5791 5794 5796 5799 5802 5804 5807 5810 5812 5814 5817 5819 5821 5824 5826 5828 5831 5833 5835 5837 5839 5841 5842 5844 5846 5847 5848 5849 5850 5851 5851 5852 5852 5852 5852 5853 5853 5853 5853 5853 5852 5852
5779 5781 5783 5786 5789 5792 5795 5797 5800 5803 5805 5808 5811 5813 5815 5818 5821 5824 5826 5828 5830 5832 5834 5836 5838 5840 5841 5842 5844 5845 5846 5846 5847 5847 5848 5848 5848 5848 5848 5848 5848 5848 5847
5768 5770 5772 5775 5778 5781 5784 5787 5790 5793 5796 5799 5802 5804 5806 5810 5813 5816 5819 5821 5824 5826 5828 5830 5832 5833 5835 5836 5838 5839 5840 5841 5841 5842 5843 5843 5843 5843 5843 5843 5843 5843 5842
5757 5759 5762 5764 5766 5769 5772 5776 5779 5782 5785 5789 5792 5795 5797 5801 5805 5808 5811 5814 5816 5819 5821 5823 5825 5827 5828 5829 5831 5833 5834 5835 5835 5836 5837 5837 5837 5838 5838 5837 5837 5837 5837
5746 5748 5750 5753 5755 5757 5760 5763 5767 5771 5774 5778 5781 5785 5788 5792 5795 5799 5802 5806 5809 5811 5813 5816 5818 5820 5821 5823 5824 5826 5827 5828 5829 5830 5830 5831 5831 5831 5832 5832 5831 5831 5831
5734 5736 5738 5740 5742 5745 5748 5751 5755 5758 5762 5766 5770 5774 5778 5782 5786 5789 5792 5796 5800 5802 5805 5808 5810 5812 5814 5815 5817 5818 5820 5821 5822 5823 5823 5824 5824 5825 5825 5825 5825 5825 5824
5723 5724 5725 5727 5730 5733 5735 5738 5742 5746 5750 5754 5758 5762 5766 5770 5775 5779 5783 5787 5790 5793 5796 5799 5802 5804 5805 5807 5809 5811 5812 5813 5815 5816 5816 5817 5817 5818 5818 5818 5818 5818 5817
5711 5712 5713 5715 5717 5720 5722 5725 5729 5732 5736 5741 5746 5750 5754 5758 5763 5767 5772 5776 5780 5783 5787 5790 5793 5795 5797 5799 5801 5803 5804 5805 5807 5808 5809 5810 5810 5810 5811 5810 5810 5810 5810
5700 5701 5702 5703 5704 5707 5709 5712 5715 5719 5723 5727 5732 5737 5741 5746 5750 5755 5760 5764 5769 5772 5776 5779 5782 5785 5788 5790 5792 5794 5795 5796 5798 5799 5801 5802 5802 5802 5802 5802 5802 5802 5801
5690 5690 5691 5692 5693 5694 5697 5699 5702 5706 5710 5714 5718 5723 5728 5733 5738 5742 5747 5752 5757 5761 5764 5768 5771 5775 5778 5780 5782 5784 5786 5787 5789 5790 5792 5793 5793 5794 5794 5794 5794 5793 5793
5679 5679 5680 5680 5682 5683 5685 5687 5689 5692 5696 5700 5704 5709 5714 5719 5725 5730 5735 5740 5745 5749 5753 5757 5760 5764 5767 5769 5771 5773 5776 5778 5779 5781 5782 5783 5784 5784 5785 5785 5784 5784 5783
5670 5669 5669 5670 5670 5671 5672 5674 5677 5679 5683 5687 5691 5695 5700 5706 5712 5717 5722 5727 5732 5737 5742 5746 5749 5752 5755 5758 5760 5763 5765 5767 5770 5771 5772 5773 5774 5775 5775 5774 5774 5773 5772
5661 5660 5660 5659 5659 5660 5661 5662 5664 5667 5670 5674 5678 5682 5687 5693 5698 5704 5709 5714 5719 5724 5729 5734 5737 5741 5744 5746 5749 5751 5754 5756 5758 5760 5762 5762 5763 5764 5764 5764 5763 5762 5761
5652 5651 5651 5650 5650 5649 5649 5650 5652 5655 5659 5662 5666 5670 5675 5680 5686 5691 5696 5701 5707 5712 5717 5721 5724 5728 5731 5734 5737 5740 5741 5743 5746 5748 5750 5752 5752 5752 5752 5752 5751 5751 5749
5645 5643 5642 5641 5640 5639 5639 5640 5641 5644 5648 5651 5655 5659 5663 5668 5673 5678 5683 5689 5694 5699 5704 5708 5712 5715 5719 5721 5724 5727 5729 5731 5733 5735 5738 5740 5741 5741 5740 5739 5738 5738 5737